Home   Weather   Schleswig   Past weeks

Flag for Germany Past Weather in Schleswig, Schleswig-Holstein, Germany — Yesterday and Last 2 Weeks

Now
57 °F

Cool.


Feels Like: 57 °F
Forecast: 51 / 72 °F
Wind: 3 mph from South

Location: Schleswig-Jagel

Current Time: Sep 24, 2016 at 11:04:28 PM

Latest Report: Sep 24, 2016 at 10:20 PM


Visibility: 6 mi

Pressure: 30.18 "Hg

Humidity: 82%

Dew Point: 52 °F

Location of SchleswigLocation

Past Weather in Schleswig — Graph

°F

Schleswig Temperature Yesterday

Maximum temperature yesterday: 68 °F (at 3:20 PM)
Minimum temperature yesterday: 52 °F (at 4:20 AM)
Average temperature yesterday: 59 °F

High & Low Weather Summary for the Past Weeks

 TemperatureHumidityPressure
High84 °F (Sep 13, 1:20 PM)100% (Sep 13, 1:20 AM)30.24 "Hg (Sep 13, 1:20 AM)
Low46 °F (Sep 22, 6:20 AM)47% (Sep 15, 12:20 PM)29.89 "Hg (Sep 16, 6:20 AM)
Average63 °F79%30.08 "Hg
* Reported Sep 9 9:20 PM — Sep 24 9:20 PM, Schleswig, Weather by CustomWeather, © 2016

Note: Actual official high and low records may vary slightly from our data, if they occured in-between our weather recording intervals... More about our weather records

Advertising

Schleswig Weather History for the Previous 24 Hours

Scroll right to see more
 ConditionsComfort  
Time TempWeatherWind HumidityBarometerVisibility
9:20 PM
Sat, Sep 24
57 °FCool.6 mph82%30.18 "Hg6 mi
8:20 PM59 °FCool.5 mph77%30.15 "HgN/A
7:20 PM61 °FCool.5 mph72%30.15 "HgN/A
6:20 PM64 °FMild.6 mph64%30.18 "HgN/A
5:20 PM66 °FMild.9 mph60%30.18 "HgN/A
4:20 PM66 °FMild.8 mph60%30.18 "HgN/A
3:20 PM66 °FMild.8 mph60%30.21 "HgN/A
2:20 PM64 °FMild.9 mph60%30.21 "HgN/A
1:20 PM64 °FMild.9 mph64%30.24 "HgN/A
12:20 PM63 °FMild.8 mph64%30.24 "HgN/A
11:20 AM63 °FMild.9 mph68%30.24 "HgN/A
10:20 AM59 °FCool.9 mph82%30.24 "HgN/A
9:20 AM55 °FCool.8 mph88%30.24 "Hg6 mi
8:20 AM52 °FCool.8 mph94%30.24 "Hg6 mi
7:20 AM46 °FCool.2 mph100%30.21 "Hg1 mi
6:20 AM46 °FCool.5 mph93%30.21 "Hg2 mi
5:20 AM46 °FCool.5 mph93%30.21 "Hg1 mi
4:20 AM46 °FCool.3 mph93%30.21 "Hg1 mi
3:20 AM46 °FCool.3 mph93%30.21 "Hg1 mi
2:20 AM48 °FCool.3 mph94%30.21 "Hg0 mi
1:20 AM50 °FCool.5 mph94%30.21 "Hg0 mi
12:20 AM52 °FCool.5 mph88%30.21 "Hg6 mi
11:20 PM
Fri, Sep 23
54 °FCool.5 mph88%30.21 "Hg5 mi
Weather by CustomWeather, © 2016

See weather overviewHow to use our weather pages